Time,TemperatureF,DewpointF,PressureIn,WindDirection,WindDirectionDegrees,WindSpeedMPH,WindSpeedGustMPH,Humidity,HourlyPrecipIn,Conditions,Clouds,dailyrainin,SoftwareType,DateUTC
2013-02-03 00:01:00,24.6,21.8,30.02,WNW,284,3.0,4.0,89,0.00,,,0.00,Wunderground v.1.15,2013-02-03 05:01:00,
2013-02-03 00:03:00,24.6,21.8,30.02,WNW,290,3.0,4.0,89,0.00,,,0.00,Wunderground v.1.15,2013-02-03 05:03:00,
2013-02-03 00:04:00,24.6,21.8,30.02,West,277,3.0,4.0,89,0.00,,,0.00,Wunderground v.1.15,2013-02-03 05:04:00,
2013-02-03 00:09:00,24.6,21.8,30.02,WNW,291,3.0,5.0,89,0.00,,,0.00,Wunderground v.1.15,2013-02-03 05:09:00,
2013-02-03 00:14:00,24.6,21.8,30.02,West,261,3.0,5.0,89,0.00,,,0.00,Wunderground v.1.15,2013-02-03 05:14:00,
2013-02-03 00:19:00,24.5,21.7,30.02,West,277,3.0,9.0,89,0.00,,,0.00,Wunderground v.1.15,2013-02-03 05:19:00,
2013-02-03 00:25:00,24.5,21.7,30.02,West,259,2.0,5.0,89,0.00,,,0.00,Wunderground v.1.15,2013-02-03 05:25:00,
2013-02-03 00:30:00,24.5,21.7,30.01,WSW,244,1.0,2.0,89,0.00,,,0.00,Wunderground v.1.15,2013-02-03 05:30:00,
2013-02-03 00:35:00,24.4,21.4,30.01,WNW,284,1.0,3.0,88,0.00,,,0.00,Wunderground v.1.15,2013-02-03 05:35:00,
2013-02-03 00:41:00,24.4,21.4,30.01,West,281,1.0,1.0,88,0.00,,,0.00,Wunderground v.1.15,2013-02-03 05:41:00,
2013-02-03 00:46:00,24.4,21.6,30.01,West,276,1.0,2.0,89,0.00,,,0.00,Wunderground v.1.15,2013-02-03 05:46:00,
2013-02-03 00:51:00,24.4,21.6,30.01,WSW,247,1.0,2.0,89,0.00,,,0.00,Wunderground v.1.15,2013-02-03 05:51:00,
2013-02-03 00:57:00,24.3,21.5,30.01,WSW,252,1.0,4.0,89,0.00,,,0.00,Wunderground v.1.15,2013-02-03 05:57:00,
2013-02-03 01:02:00,24.3,21.5,30.01,WSW,254,0.0,1.0,89,0.00,,,0.00,Wunderground v.1.15,2013-02-03 06:02:00,
2013-02-03 01:07:00,24.3,21.5,30.01,West,273,1.0,4.0,89,0.00,,,0.00,Wunderground v.1.15,2013-02-03 06:07:00,
2013-02-03 01:12:00,24.2,21.4,30.00,WNW,288,2.0,3.0,89,0.00,,,0.00,Wunderground v.1.15,2013-02-03 06:12:00,
2013-02-03 01:18:00,24.1,21.3,30.00,West,276,2.0,5.0,89,0.00,,,0.00,Wunderground v.1.15,2013-02-03 06:18:00,
2013-02-03 01:23:00,24.0,21.2,30.00,NW,323,2.0,3.0,89,0.00,,,0.00,Wunderground v.1.15,2013-02-03 06:23:00,
2013-02-03 01:28:00,23.9,21.1,30.00,WNW,288,2.0,5.0,89,0.00,,,0.00,Wunderground v.1.15,2013-02-03 06:28:00,
2013-02-03 01:34:00,23.8,21.0,29.99,WNW,296,2.0,4.0,89,0.00,,,0.00,Wunderground v.1.15,2013-02-03 06:34:00,
2013-02-03 01:39:00,23.8,20.8,30.00,WNW,284,1.0,4.0,88,0.00,,,0.00,Wunderground v.1.15,2013-02-03 06:39:00,
2013-02-03 01:44:00,23.7,20.7,29.99,WNW,283,2.0,3.0,88,0.00,,,0.00,Wunderground v.1.15,2013-02-03 06:44:00,
2013-02-03 01:49:00,23.7,20.7,29.99,WSW,243,2.0,3.0,88,0.00,,,0.00,Wunderground v.1.15,2013-02-03 06:49:00,
2013-02-03 01:55:00,23.6,20.6,29.99,WSW,250,0.0,1.0,88,0.00,,,0.00,Wunderground v.1.15,2013-02-03 06:55:00,
2013-02-03 02:00:00,23.6,20.6,29.99,West,281,1.0,2.0,88,0.00,,,0.00,Wunderground v.1.15,2013-02-03 07:00:00,
2013-02-03 02:05:00,23.6,20.6,29.99,West,271,1.0,2.0,88,0.00,,,0.00,Wunderground v.1.15,2013-02-03 07:05:00,
2013-02-03 02:10:00,23.5,20.5,29.99,WNW,297,1.0,1.0,88,0.00,,,0.00,Wunderground v.1.15,2013-02-03 07:10:00,
2013-02-03 02:15:00,23.6,20.6,29.99,West,281,1.0,2.0,88,0.00,,,0.00,Wunderground v.1.15,2013-02-03 07:15:00,
2013-02-03 02:21:00,23.5,20.5,29.98,WNW,296,2.0,2.0,88,0.00,,,0.00,Wunderground v.1.15,2013-02-03 07:21:00,
2013-02-03 02:26:00,23.5,20.5,29.98,West,281,1.0,2.0,88,0.00,,,0.00,Wunderground v.1.15,2013-02-03 07:26:00,
2013-02-03 02:31:00,23.5,20.5,29.98,West,281,1.0,1.0,88,0.00,,,0.00,Wunderground v.1.15,2013-02-03 07:31:00,
2013-02-03 02:37:00,23.5,20.5,29.98,West,281,0.0,1.0,88,0.00,,,0.00,Wunderground v.1.15,2013-02-03 07:37:00,
2013-02-03 02:42:00,23.5,20.5,29.98,WNW,288,1.0,3.0,88,0.00,,,0.00,Wunderground v.1.15,2013-02-03 07:42:00,
2013-02-03 02:47:00,23.5,20.7,29.98,WNW,285,0.0,3.0,89,0.00,,,0.00,Wunderground v.1.15,2013-02-03 07:47:00,
2013-02-03 02:52:00,23.4,20.6,29.98,West,263,0.0,3.0,89,0.00,,,0.00,Wunderground v.1.15,2013-02-03 07:52:00,
2013-02-03 02:58:00,23.4,20.6,29.98,West,279,2.0,4.0,89,0.00,,,0.00,Wunderground v.1.15,2013-02-03 07:58:00,
2013-02-03 03:03:00,23.4,20.4,29.97,West,275,1.0,2.0,88,0.00,,,0.00,Wunderground v.1.15,2013-02-03 08:03:00,
2013-02-03 03:08:00,23.3,20.3,29.97,West,273,0.0,2.0,88,0.00,,,0.00,Wunderground v.1.15,2013-02-03 08:08:00,
2013-02-03 03:13:00,23.3,20.3,29.97,West,273,0.0,0.0,88,0.00,,,0.00,Wunderground v.1.15,2013-02-03 08:13:00,
2013-02-03 03:19:00,23.3,20.3,29.97,WNW,300,1.0,5.0,88,0.00,,,0.00,Wunderground v.1.15,2013-02-03 08:19:00,
2013-02-03 03:24:00,23.2,20.2,29.97,WNW,298,2.0,2.0,88,0.00,,,0.00,Wunderground v.1.15,2013-02-03 08:24:00,
2013-02-03 03:29:00,23.2,20.2,29.97,WNW,293,1.0,2.0,88,0.00,,,0.00,Wunderground v.1.15,2013-02-03 08:29:00,
2013-02-03 03:34:00,23.1,20.1,29.96,West,277,1.0,2.0,88,0.00,,,0.00,Wunderground v.1.15,2013-02-03 08:34:00,
2013-02-03 03:40:00,23.1,20.1,29.96,WNW,284,1.0,1.0,88,0.00,,,0.00,Wunderground v.1.15,2013-02-03 08:40:00,
2013-02-03 03:45:00,23.1,20.1,29.95,West,264,1.0,2.0,88,0.00,,,0.00,Wunderground v.1.15,2013-02-03 08:45:00,
2013-02-03 03:50:00,23.1,20.1,29.96,West,265,1.0,1.0,88,0.00,,,0.00,Wunderground v.1.15,2013-02-03 08:50:00,
2013-02-03 03:55:00,23.1,20.1,29.96,West,265,0.0,2.0,88,0.00,,,0.00,Wunderground v.1.15,2013-02-03 08:55:00,
2013-02-03 04:01:00,23.1,20.1,29.95,West,269,1.0,1.0,88,0.00,,,0.00,Wunderground v.1.15,2013-02-03 09:01:00,
2013-02-03 04:06:00,23.1,20.1,29.95,West,269,1.0,2.0,88,0.00,,,0.00,Wunderground v.1.15,2013-02-03 09:06:00,
2013-02-03 04:11:00,23.1,20.1,29.95,West,269,0.0,1.0,88,0.00,,,0.00,Wunderground v.1.15,2013-02-03 09:11:00,
2013-02-03 04:17:00,23.0,20.0,29.95,WNW,284,1.0,3.0,88,0.00,,,0.00,Wunderground v.1.15,2013-02-03 09:17:00,
2013-02-03 04:22:00,23.0,20.0,29.95,WNW,295,1.0,3.0,88,0.00,,,0.00,Wunderground v.1.15,2013-02-03 09:22:00,
2013-02-03 04:27:00,23.0,20.0,29.94,NW,306,1.0,3.0,88,0.00,,,0.00,Wunderground v.1.15,2013-02-03 09:27:00,
2013-02-03 04:32:00,23.0,20.0,29.94,WNW,287,1.0,1.0,88,0.00,,,0.00,Wunderground v.1.15,2013-02-03 09:32:00,
2013-02-03 04:38:00,22.9,20.1,29.94,WNW,287,1.0,1.0,89,0.00,,,0.00,Wunderground v.1.15,2013-02-03 09:38:00,
2013-02-03 04:43:00,22.8,20.0,29.94,WNW,287,0.0,0.0,89,0.00,,,0.00,Wunderground v.1.15,2013-02-03 09:43:00,
2013-02-03 04:48:00,22.8,20.0,29.94,WNW,287,0.0,0.0,89,0.00,,,0.00,Wunderground v.1.15,2013-02-03 09:48:00,
2013-02-03 04:53:00,22.7,19.9,29.94,WNW,287,0.0,1.0,89,0.00,,,0.00,Wunderground v.1.15,2013-02-03 09:53:00,
2013-02-03 04:59:00,22.7,19.9,29.93,WNW,287,0.0,1.0,89,0.00,,,0.00,Wunderground v.1.15,2013-02-03 09:59:00,
2013-02-03 05:04:00,22.5,19.7,29.93,WNW,287,0.0,0.0,89,0.00,,,0.00,Wunderground v.1.15,2013-02-03 10:04:00,
2013-02-03 05:09:00,22.5,19.7,29.93,WNW,287,0.0,0.0,89,0.00,,,0.00,Wunderground v.1.15,2013-02-03 10:09:00,
2013-02-03 05:15:00,22.4,19.9,29.93,WNW,287,0.0,0.0,90,0.00,,,0.00,Wunderground v.1.15,2013-02-03 10:15:00,
2013-02-03 05:20:00,22.3,19.8,29.93,WNW,287,0.0,0.0,90,0.00,,,0.00,Wunderground v.1.15,2013-02-03 10:20:00,
2013-02-03 05:25:00,22.2,19.7,29.93,WNW,287,0.0,0.0,90,0.00,,,0.00,Wunderground v.1.15,2013-02-03 10:25:00,
2013-02-03 05:30:00,22.2,19.7,29.93,WNW,287,0.0,0.0,90,0.00,,,0.00,Wunderground v.1.15,2013-02-03 10:30:00,
2013-02-03 05:36:00,22.2,19.7,29.93,WNW,287,0.0,0.0,90,0.00,,,0.00,Wunderground v.1.15,2013-02-03 10:36:00,
2013-02-03 05:41:00,22.2,19.7,29.92,WNW,287,0.0,0.0,90,0.00,,,0.00,Wunderground v.1.15,2013-02-03 10:41:00,
2013-02-03 05:46:00,22.2,20.0,29.92,WNW,287,0.0,0.0,91,0.00,,,0.00,Wunderground v.1.15,2013-02-03 10:46:00,
2013-02-03 05:52:00,22.2,20.0,29.92,WNW,287,0.0,0.0,91,0.00,,,0.00,Wunderground v.1.15,2013-02-03 10:52:00,
2013-02-03 05:57:00,22.2,20.0,29.92,WNW,288,0.0,0.0,91,0.00,,,0.00,Wunderground v.1.15,2013-02-03 10:57:00,
2013-02-03 06:02:00,22.1,19.9,29.92,WNW,290,0.0,1.0,91,0.00,,,0.00,Wunderground v.1.15,2013-02-03 11:02:00,
2013-02-03 06:08:00,21.9,19.7,29.92,WNW,290,0.0,1.0,91,0.00,,,0.00,Wunderground v.1.15,2013-02-03 11:08:00,
2013-02-03 06:14:00,21.7,19.5,29.92,WNW,291,0.0,0.0,91,0.00,,,0.00,Wunderground v.1.15,2013-02-03 11:14:00,
2013-02-03 06:19:00,21.5,19.0,29.92,WNW,291,0.0,0.0,90,0.00,,,0.00,Wunderground v.1.15,2013-02-03 11:19:00,
2013-02-03 06:24:00,21.3,18.8,29.92,WNW,291,0.0,0.0,90,0.00,,,0.00,Wunderground v.1.15,2013-02-03 11:24:00,
2013-02-03 06:29:00,21.2,18.7,29.93,NNW,332,0.0,3.0,90,0.00,,,0.00,Wunderground v.1.15,2013-02-03 11:29:00,
2013-02-03 06:34:00,21.0,18.5,29.92,NNW,330,1.0,2.0,90,0.00,,,0.00,Wunderground v.1.15,2013-02-03 11:34:00,
2013-02-03 06:40:00,20.8,18.3,29.92,NNW,333,1.0,1.0,90,0.00,,,0.00,Wunderground v.1.15,2013-02-03 11:40:00,
2013-02-03 06:45:00,20.7,18.2,29.92,NNW,333,0.0,1.0,90,0.00,,,0.00,Wunderground v.1.15,2013-02-03 11:45:00,
2013-02-03 06:51:00,20.6,18.1,29.92,NNW,333,0.0,0.0,90,0.00,,,0.00,Wunderground v.1.15,2013-02-03 11:51:00,
2013-02-03 06:56:00,20.6,18.1,29.92,NNW,333,0.0,0.0,90,0.00,,,0.00,Wunderground v.1.15,2013-02-03 11:56:00,
2013-02-03 07:01:00,20.6,18.1,29.92,NNW,333,0.0,0.0,90,0.00,,,0.00,Wunderground v.1.15,2013-02-03 12:01:00,
2013-02-03 07:06:00,20.6,18.1,29.92,NNW,333,0.0,0.0,90,0.00,,,0.00,Wunderground v.1.15,2013-02-03 12:06:00,
2013-02-03 07:12:00,20.5,18.0,29.92,NNW,333,0.0,0.0,90,0.00,,,0.00,Wunderground v.1.15,2013-02-03 12:12:00,
2013-02-03 07:17:00,20.6,18.1,29.92,NNW,333,0.0,0.0,90,0.00,,,0.00,Wunderground v.1.15,2013-02-03 12:17:00,
2013-02-03 07:22:00,20.6,18.1,29.92,NNW,333,0.0,0.0,90,0.00,,,0.00,Wunderground v.1.15,2013-02-03 12:22:00,
2013-02-03 07:27:00,20.5,18.0,29.92,NNW,333,0.0,0.0,90,0.00,,,0.00,Wunderground v.1.15,2013-02-03 12:27:00,
2013-02-03 07:33:00,20.4,17.9,29.92,NNW,333,0.0,0.0,90,0.00,,,0.00,Wunderground v.1.15,2013-02-03 12:33:00,
2013-02-03 07:38:00,20.4,17.9,29.92,NNW,333,0.0,0.0,90,0.00,,,0.00,Wunderground v.1.15,2013-02-03 12:38:00,
2013-02-03 07:44:00,20.4,17.9,29.92,NNW,333,0.0,0.0,90,0.00,,,0.00,Wunderground v.1.15,2013-02-03 12:44:00,
2013-02-03 07:49:00,20.4,17.9,29.92,NNW,333,0.0,0.0,90,0.00,,,0.00,Wunderground v.1.15,2013-02-03 12:49:00,
2013-02-03 07:54:00,20.4,17.9,29.92,NNW,333,0.0,0.0,90,0.00,,,0.00,Wunderground v.1.15,2013-02-03 12:54:00,
2013-02-03 07:59:00,20.4,17.9,29.92,NNW,333,0.0,0.0,90,0.00,,,0.00,Wunderground v.1.15,2013-02-03 12:59:00,
2013-02-03 08:05:00,20.4,17.9,29.93,NNW,333,0.0,0.0,90,0.00,,,0.00,Wunderground v.1.15,2013-02-03 13:05:00,
2013-02-03 08:10:00,20.4,17.9,29.93,NNW,333,0.0,0.0,90,0.00,,,0.00,Wunderground v.1.15,2013-02-03 13:10:00,
2013-02-03 08:15:00,20.3,17.6,29.92,NNW,333,0.0,0.0,89,0.00,,,0.00,Wunderground v.1.15,2013-02-03 13:15:00,
2013-02-03 08:20:00,20.3,17.6,29.92,NNW,333,0.0,0.0,89,0.00,,,0.00,Wunderground v.1.15,2013-02-03 13:20:00,
2013-02-03 08:26:00,20.3,17.6,29.92,SSW,204,0.0,0.0,89,0.00,,,0.00,Wunderground v.1.15,2013-02-03 13:26:00,
2013-02-03 08:31:00,20.3,17.6,29.93,SSW,204,0.0,0.0,89,0.00,,,0.00,Wunderground v.1.15,2013-02-03 13:31:00,
2013-02-03 08:36:00,20.4,17.7,29.93,SSW,204,0.0,0.0,89,0.00,,,0.00,Wunderground v.1.15,2013-02-03 13:36:00,
2013-02-03 08:41:00,20.4,17.7,29.93,SSW,204,0.0,0.0,89,0.00,,,0.00,Wunderground v.1.15,2013-02-03 13:41:00,
2013-02-03 08:47:00,20.4,17.7,29.93,SSW,204,0.0,0.0,89,0.00,,,0.00,Wunderground v.1.15,2013-02-03 13:47:00,
2013-02-03 08:52:00,20.4,17.7,29.93,WSW,245,0.0,2.0,89,0.00,,,0.00,Wunderground v.1.15,2013-02-03 13:52:00,
2013-02-03 08:57:00,20.4,17.7,29.93,WSW,248,1.0,3.0,89,0.00,,,0.00,Wunderground v.1.15,2013-02-03 13:57:00,
2013-02-03 09:03:00,20.5,17.8,29.93,WSW,248,0.0,1.0,89,0.00,,,0.00,Wunderground v.1.15,2013-02-03 14:03:00,
2013-02-03 09:08:00,20.6,17.9,29.93,WSW,248,0.0,2.0,89,0.00,,,0.00,Wunderground v.1.15,2013-02-03 14:08:00,
2013-02-03 09:13:00,20.6,17.9,29.93,NW,304,1.0,2.0,89,0.00,,,0.00,Wunderground v.1.15,2013-02-03 14:13:00,
2013-02-03 09:18:00,20.6,17.9,29.93,NW,304,0.0,2.0,89,0.00,,,0.00,Wunderground v.1.15,2013-02-03 14:18:00,
2013-02-03 09:24:00,20.6,17.9,29.93,NW,304,0.0,0.0,89,0.00,,,0.00,Wunderground v.1.15,2013-02-03 14:24:00,
2013-02-03 09:29:00,20.6,17.6,29.93,NW,308,0.0,0.0,88,0.00,,,0.00,Wunderground v.1.15,2013-02-03 14:29:00,
2013-02-03 09:34:00,20.6,17.6,29.93,NW,308,0.0,0.0,88,0.00,,,0.00,Wunderground v.1.15,2013-02-03 14:34:00,
2013-02-03 09:40:00,20.7,17.7,29.93,NW,308,0.0,0.0,88,0.00,,,0.00,Wunderground v.1.15,2013-02-03 14:40:00,
2013-02-03 09:45:00,20.9,17.9,29.92,NW,308,0.0,0.0,88,0.00,,,0.00,Wunderground v.1.15,2013-02-03 14:45:00,
2013-02-03 09:50:00,21.1,18.1,29.93,NW,308,0.0,0.0,88,0.00,,,0.00,Wunderground v.1.15,2013-02-03 14:50:00,
2013-02-03 09:56:00,21.3,18.3,29.92,NW,307,0.0,1.0,88,0.00,,,0.00,Wunderground v.1.15,2013-02-03 14:56:00,
2013-02-03 10:01:00,21.5,18.5,29.92,WNW,300,0.0,0.0,88,0.00,,,0.00,Wunderground v.1.15,2013-02-03 15:01:00,
2013-02-03 10:06:00,21.6,18.3,29.92,WNW,300,0.0,2.0,87,0.00,,,0.00,Wunderground v.1.15,2013-02-03 15:06:00,
2013-02-03 10:11:00,21.5,18.2,29.93,WNW,300,1.0,1.0,87,0.00,,,0.00,Wunderground v.1.15,2013-02-03 15:11:00,
2013-02-03 10:16:00,21.5,18.2,29.92,WNW,300,0.0,1.0,87,0.00,,,0.00,Wunderground v.1.15,2013-02-03 15:16:00,
2013-02-03 10:22:00,21.6,18.3,29.92,WNW,300,0.0,1.0,87,0.00,,,0.00,Wunderground v.1.15,2013-02-03 15:22:00,
2013-02-03 10:27:00,21.4,18.1,29.93,WSW,241,1.0,3.0,87,0.00,,,0.00,Wunderground v.1.15,2013-02-03 15:27:00,
2013-02-03 10:32:00,21.3,18.0,29.93,SSW,213,2.0,8.0,87,0.00,,,0.00,Wunderground v.1.15,2013-02-03 15:32:00,
2013-02-03 10:38:00,20.2,16.7,29.93,SW,234,4.0,8.0,86,0.00,,,0.00,Wunderground v.1.15,2013-02-03 15:38:00,
2013-02-03 10:43:00,19.7,16.2,29.94,WSW,252,5.0,5.0,86,0.00,,,0.00,Wunderground v.1.15,2013-02-03 15:43:00,
2013-02-03 10:48:00,19.4,15.9,29.94,WSW,239,4.0,7.0,86,0.00,,,0.00,Wunderground v.1.15,2013-02-03 15:48:00,
2013-02-03 10:53:00,19.3,16.1,29.94,WSW,249,5.0,9.0,87,0.00,,,0.00,Wunderground v.1.15,2013-02-03 15:53:00,
2013-02-03 10:59:00,19.1,15.6,29.94,WSW,242,6.0,12.0,86,0.00,,,0.00,Wunderground v.1.15,2013-02-03 15:59:00,
2013-02-03 11:04:00,19.2,16.0,29.94,West,269,5.0,7.0,87,0.00,,,0.00,Wunderground v.1.15,2013-02-03 16:04:00,
2013-02-03 11:09:00,19.5,16.3,29.94,West,265,4.0,7.0,87,0.00,,,0.00,Wunderground v.1.15,2013-02-03 16:09:00,
2013-02-03 11:14:00,19.7,16.5,29.94,West,262,3.0,6.0,87,0.00,,,0.00,Wunderground v.1.15,2013-02-03 16:14:00,
2013-02-03 11:20:00,19.7,16.5,29.94,WSW,244,4.0,5.0,87,0.00,,,0.00,Wunderground v.1.15,2013-02-03 16:20:00,
2013-02-03 11:25:00,19.8,16.6,29.94,WSW,252,5.0,7.0,87,0.00,,,0.00,Wunderground v.1.15,2013-02-03 16:25:00,
2013-02-03 11:30:00,20.0,16.8,29.94,SW,235,5.0,5.0,87,0.00,,,0.00,Wunderground v.1.15,2013-02-03 16:30:00,
2013-02-03 11:35:00,20.3,17.0,29.94,WSW,238,4.0,6.0,87,0.00,,,0.00,Wunderground v.1.15,2013-02-03 16:35:00,
2013-02-03 11:41:00,20.4,17.1,29.94,West,262,4.0,9.0,87,0.00,,,0.00,Wunderground v.1.15,2013-02-03 16:41:00,
2013-02-03 11:46:00,20.6,17.3,29.94,West,271,3.0,9.0,87,0.00,,,0.00,Wunderground v.1.15,2013-02-03 16:46:00,
2013-02-03 11:51:00,20.7,17.4,29.94,WSW,238,3.0,3.0,87,0.00,,,0.00,Wunderground v.1.15,2013-02-03 16:51:00,
2013-02-03 11:57:00,20.9,17.6,29.93,WSW,252,3.0,4.0,87,0.00,,,0.00,Wunderground v.1.15,2013-02-03 16:57:00,
2013-02-03 12:02:00,21.0,17.7,29.93,West,259,3.0,5.0,87,0.00,,,0.00,Wunderground v.1.15,2013-02-03 17:02:00,
2013-02-03 12:07:00,20.9,17.6,29.93,West,271,4.0,6.0,87,0.00,,,0.00,Wunderground v.1.15,2013-02-03 17:07:00,
2013-02-03 12:13:00,20.9,17.6,29.93,WSW,251,4.0,5.0,87,0.00,,,0.00,Wunderground v.1.15,2013-02-03 17:13:00,
2013-02-03 12:18:00,21.0,17.7,29.93,West,275,3.0,7.0,87,0.00,,,0.00,Wunderground v.1.15,2013-02-03 17:18:00,
2013-02-03 12:23:00,21.1,17.8,29.93,West,263,4.0,9.0,87,0.00,,,0.00,Wunderground v.1.15,2013-02-03 17:23:00,
2013-02-03 12:28:00,21.4,18.1,29.93,West,275,5.0,9.0,87,0.00,,,0.00,Wunderground v.1.15,2013-02-03 17:28:00,
2013-02-03 12:34:00,21.4,17.6,29.93,West,268,5.0,10.0,85,0.00,,,0.00,Wunderground v.1.15,2013-02-03 17:34:00,
2013-02-03 12:39:00,21.4,17.0,29.93,WNW,290,6.0,10.0,83,0.00,,,0.00,Wunderground v.1.15,2013-02-03 17:39:00,
2013-02-03 12:44:00,21.4,16.8,29.93,West,264,5.0,7.0,82,0.00,,,0.00,Wunderground v.1.15,2013-02-03 17:44:00,
2013-02-03 12:49:00,21.5,16.6,29.93,West,259,6.0,10.0,81,0.00,,,0.00,Wunderground v.1.15,2013-02-03 17:49:00,
2013-02-03 12:55:00,21.1,15.9,29.93,West,261,7.0,10.0,80,0.00,,,0.00,Wunderground v.1.15,2013-02-03 17:55:00,
2013-02-03 13:00:00,21.1,16.2,29.93,West,270,6.0,6.0,81,0.00,,,0.00,Wunderground v.1.15,2013-02-03 18:00:00,
2013-02-03 13:05:00,21.4,16.5,29.94,West,261,5.0,7.0,81,0.00,,,0.00,Wunderground v.1.15,2013-02-03 18:05:00,
2013-02-03 13:10:00,21.6,16.7,29.93,West,267,5.0,13.0,81,0.00,,,0.00,Wunderground v.1.15,2013-02-03 18:10:00,
2013-02-03 13:16:00,21.6,16.4,29.94,WSW,257,6.0,13.0,80,0.00,,,0.00,Wunderground v.1.15,2013-02-03 18:16:00,
2013-02-03 13:21:00,21.4,15.9,29.93,West,266,5.0,10.0,79,0.00,,,0.00,Wunderground v.1.15,2013-02-03 18:21:00,
2013-02-03 13:26:00,21.3,15.8,29.93,SW,228,4.0,10.0,79,0.00,,,0.00,Wunderground v.1.15,2013-02-03 18:26:00,
2013-02-03 13:31:00,21.5,16.0,29.93,WNW,287,4.0,14.0,79,0.00,,,0.00,Wunderground v.1.15,2013-02-03 18:31:00,
2013-02-03 13:37:00,21.4,15.9,29.93,WSW,256,5.0,14.0,79,0.00,,,0.00,Wunderground v.1.15,2013-02-03 18:37:00,
2013-02-03 13:42:00,21.5,16.0,29.93,WNW,288,5.0,5.0,79,0.00,,,0.00,Wunderground v.1.15,2013-02-03 18:42:00,
2013-02-03 13:47:00,21.6,16.1,29.93,West,274,4.0,11.0,79,0.00,,,0.00,Wunderground v.1.15,2013-02-03 18:47:00,
2013-02-03 13:52:00,21.4,15.6,29.94,West,274,5.0,8.0,78,0.00,,,0.00,Wunderground v.1.15,2013-02-03 18:52:00,
2013-02-03 13:58:00,21.3,15.5,29.94,West,269,6.0,12.0,78,0.00,,,0.00,Wunderground v.1.15,2013-02-03 18:58:00,
2013-02-03 14:03:00,21.0,15.2,29.94,West,281,6.0,11.0,78,0.00,,,0.00,Wunderground v.1.15,2013-02-03 19:03:00,
2013-02-03 14:08:00,20.9,15.1,29.94,West,273,6.0,11.0,78,0.00,,,0.00,Wunderground v.1.15,2013-02-03 19:08:00,
2013-02-03 14:13:00,20.6,14.5,29.95,West,279,7.0,14.0,77,0.00,,,0.00,Wunderground v.1.15,2013-02-03 19:13:00,
2013-02-03 14:19:00,20.7,14.9,29.94,West,267,6.0,14.0,78,0.00,,,0.00,Wunderground v.1.15,2013-02-03 19:19:00,
2013-02-03 14:24:00,20.8,15.0,29.94,West,261,4.0,6.0,78,0.00,,,0.00,Wunderground v.1.15,2013-02-03 19:24:00,
2013-02-03 14:29:00,20.9,14.8,29.94,WSW,251,4.0,10.0,77,0.00,,,0.00,Wunderground v.1.15,2013-02-03 19:29:00,
2013-02-03 14:35:00,20.9,14.8,29.94,WNW,286,4.0,7.0,77,0.00,,,0.00,Wunderground v.1.15,2013-02-03 19:35:00,
2013-02-03 14:41:00,20.5,14.4,29.94,WSW,240,5.0,12.0,77,0.00,,,0.00,Wunderground v.1.15,2013-02-03 19:41:00,
2013-02-03 14:46:00,20.6,14.5,29.95,WNW,300,5.0,12.0,77,0.00,,,0.00,Wunderground v.1.15,2013-02-03 19:46:00,
2013-02-03 14:51:00,20.7,14.6,29.95,West,278,5.0,9.0,77,0.00,,,0.00,Wunderground v.1.15,2013-02-03 19:51:00,
2013-02-03 14:57:00,20.7,14.6,29.95,WNW,293,6.0,11.0,77,0.00,,,0.00,Wunderground v.1.15,2013-02-03 19:57:00,
2013-02-03 15:03:00,20.6,14.5,29.96,West,271,6.0,12.0,77,0.00,,,0.00,Wunderground v.1.15,2013-02-03 20:03:00,
2013-02-03 15:08:00,20.6,14.5,29.96,WNW,297,6.0,12.0,77,0.00,,,0.00,Wunderground v.1.15,2013-02-03 20:08:00,
2013-02-03 15:13:00,20.5,14.4,29.96,WNW,302,5.0,9.0,77,0.00,,,0.00,Wunderground v.1.15,2013-02-03 20:13:00,
2013-02-03 15:19:00,20.3,13.9,29.96,WSW,257,5.0,9.0,76,0.00,,,0.00,Wunderground v.1.15,2013-02-03 20:19:00,
2013-02-03 15:24:00,20.2,13.8,29.97,WNW,294,5.0,12.0,76,0.00,,,0.00,Wunderground v.1.15,2013-02-03 20:24:00,
2013-02-03 15:29:00,19.9,13.3,29.97,WNW,292,6.0,12.0,75,0.00,,,0.00,Wunderground v.1.15,2013-02-03 20:29:00,
2013-02-03 15:34:00,19.9,13.3,29.97,West,260,6.0,11.0,75,0.00,,,0.00,Wunderground v.1.15,2013-02-03 20:34:00,
2013-02-03 15:39:00,19.8,13.2,29.98,NW,304,6.0,11.0,75,0.00,,,0.00,Wunderground v.1.15,2013-02-03 20:39:00,
2013-02-03 15:45:00,19.9,13.6,29.98,WNW,297,5.0,6.0,76,0.00,,,0.00,Wunderground v.1.15,2013-02-03 20:45:00,
2013-02-03 15:50:00,19.8,13.5,29.99,NW,310,5.0,12.0,76,0.00,,,0.00,Wunderground v.1.15,2013-02-03 20:50:00,
2013-02-03 15:55:00,19.7,13.4,29.99,WSW,254,7.0,12.0,76,0.00,,,0.00,Wunderground v.1.15,2013-02-03 20:55:00,
2013-02-03 16:01:00,19.7,13.1,29.99,WNW,286,6.0,7.0,75,0.00,,,0.00,Wunderground v.1.15,2013-02-03 21:01:00,
2013-02-03 16:06:00,19.5,12.9,30.00,West,280,7.0,13.0,75,0.00,,,0.00,Wunderground v.1.15,2013-02-03 21:06:00,
2013-02-03 16:12:00,19.2,12.3,30.00,West,264,8.0,16.0,74,0.00,,,0.00,Wunderground v.1.15,2013-02-03 21:12:00,
2013-02-03 16:17:00,19.0,12.1,30.01,West,281,10.0,16.0,74,0.00,,,0.00,Wunderground v.1.15,2013-02-03 21:17:00,
2013-02-03 16:22:00,19.0,12.1,30.00,WSW,257,8.0,9.0,74,0.00,,,0.00,Wunderground v.1.15,2013-02-03 21:22:00,
2013-02-03 16:27:00,18.9,12.0,30.01,WSW,257,6.0,15.0,74,0.00,,,0.00,Wunderground v.1.15,2013-02-03 21:27:00,
2013-02-03 16:33:00,18.8,11.9,30.01,West,278,7.0,18.0,74,0.00,,,0.00,Wunderground v.1.15,2013-02-03 21:33:00,
2013-02-03 16:38:00,18.5,11.6,30.01,NW,319,9.0,18.0,74,0.00,,,0.00,Wunderground v.1.15,2013-02-03 21:38:00,
2013-02-03 16:43:00,18.4,11.5,30.01,WNW,294,10.0,13.0,74,0.00,,,0.00,Wunderground v.1.15,2013-02-03 21:43:00,
2013-02-03 16:49:00,18.4,11.5,30.01,WNW,294,8.0,14.0,74,0.00,,,0.00,Wunderground v.1.15,2013-02-03 21:49:00,
2013-02-03 16:54:00,18.4,11.8,30.02,WNW,300,8.0,13.0,75,0.00,,,0.00,Wunderground v.1.15,2013-02-03 21:54:00,
2013-02-03 16:59:00,18.3,11.7,30.01,West,259,9.0,13.0,75,0.00,,,0.00,Wunderground v.1.15,2013-02-03 21:59:00,
2013-02-03 17:05:00,18.3,11.7,30.01,West,261,10.0,17.0,75,0.00,,,0.00,Wunderground v.1.15,2013-02-03 22:05:00,
2013-02-03 17:11:00,18.3,12.0,30.02,West,281,10.0,10.0,76,0.00,,,0.00,Wunderground v.1.15,2013-02-03 22:11:00,
2013-02-03 17:16:00,18.3,12.0,30.02,WSW,250,9.0,10.0,76,0.00,,,0.00,Wunderground v.1.15,2013-02-03 22:16:00,
2013-02-03 17:21:00,18.3,12.3,30.02,WSW,250,7.0,10.0,77,0.00,,,0.00,Wunderground v.1.15,2013-02-03 22:21:00,
2013-02-03 17:27:00,18.3,12.3,30.02,WNW,298,7.0,13.0,77,0.00,,,0.00,Wunderground v.1.15,2013-02-03 22:27:00,
2013-02-03 17:32:00,18.4,12.4,30.03,WSW,257,8.0,9.0,77,0.00,,,0.00,Wunderground v.1.15,2013-02-03 22:32:00,
2013-02-03 17:37:00,18.4,12.4,30.03,West,279,6.0,9.0,77,0.00,,,0.00,Wunderground v.1.15,2013-02-03 22:37:00,
2013-02-03 17:42:00,18.4,12.7,30.03,West,280,4.0,5.0,78,0.00,,,0.00,Wunderground v.1.15,2013-02-03 22:42:00,
2013-02-03 17:48:00,18.4,12.7,30.03,West,275,4.0,12.0,78,0.00,,,0.00,Wunderground v.1.15,2013-02-03 22:48:00,
2013-02-03 17:53:00,18.4,12.7,30.03,West,265,5.0,12.0,78,0.00,,,0.00,Wunderground v.1.15,2013-02-03 22:53:00,
2013-02-03 17:58:00,18.4,12.7,30.03,WNW,303,7.0,12.0,78,0.00,,,0.00,Wunderground v.1.15,2013-02-03 22:58:00,
2013-02-03 18:04:00,18.5,12.8,30.03,NW,308,9.0,9.0,78,0.00,,,0.00,Wunderground v.1.15,2013-02-03 23:04:00,
2013-02-03 18:09:00,18.5,12.8,30.04,West,275,8.0,10.0,78,0.00,,,0.00,Wunderground v.1.15,2013-02-03 23:09:00,
2013-02-03 18:14:00,18.5,12.8,30.04,West,279,6.0,10.0,78,0.00,,,0.00,Wunderground v.1.15,2013-02-03 23:14:00,
2013-02-03 18:19:00,18.5,13.1,30.05,West,277,5.0,10.0,79,0.00,,,0.00,Wunderground v.1.15,2013-02-03 23:19:00,
2013-02-03 18:25:00,18.6,13.2,30.05,SW,236,5.0,7.0,79,0.00,,,0.00,Wunderground v.1.15,2013-02-03 23:25:00,
2013-02-03 18:30:00,18.6,13.2,30.05,WSW,242,5.0,5.0,79,0.00,,,0.00,Wunderground v.1.15,2013-02-03 23:30:00,
2013-02-03 18:35:00,18.6,13.5,30.05,West,277,3.0,7.0,80,0.00,,,0.00,Wunderground v.1.15,2013-02-03 23:35:00,
2013-02-03 18:40:00,18.7,13.6,30.05,WNW,286,2.0,12.0,80,0.00,,,0.00,Wunderground v.1.15,2013-02-03 23:40:00,
2013-02-03 18:46:00,18.7,13.6,30.05,WSW,247,3.0,12.0,80,0.00,,,0.00,Wunderground v.1.15,2013-02-03 23:46:00,
2013-02-03 18:51:00,18.7,13.6,30.05,WSW,244,3.0,4.0,80,0.00,,,0.00,Wunderground v.1.15,2013-02-03 23:51:00,
2013-02-03 18:56:00,18.7,13.6,30.05,West,269,3.0,6.0,80,0.00,,,0.00,Wunderground v.1.15,2013-02-03 23:56:00,
2013-02-03 19:02:00,18.8,13.7,30.05,WSW,244,4.0,4.0,80,0.00,,,0.00,Wunderground v.1.15,2013-02-04 00:02:00,
2013-02-03 19:07:00,18.8,13.7,30.06,West,261,5.0,10.0,80,0.00,,,0.00,Wunderground v.1.15,2013-02-04 00:07:00,
2013-02-03 19:12:00,18.9,13.7,30.06,West,265,4.0,4.0,80,0.00,,,0.00,Wunderground v.1.15,2013-02-04 00:12:00,
2013-02-03 19:17:00,18.9,13.7,30.07,West,281,4.0,7.0,80,0.00,,,0.00,Wunderground v.1.15,2013-02-04 00:17:00,
2013-02-03 19:23:00,18.9,13.7,30.07,West,269,5.0,7.0,80,0.00,,,0.00,Wunderground v.1.15,2013-02-04 00:23:00,
2013-02-03 19:28:00,18.9,13.7,30.07,WSW,240,5.0,10.0,80,0.00,,,0.00,Wunderground v.1.15,2013-02-04 00:28:00,
2013-02-03 19:33:00,18.9,13.7,30.07,WSW,238,4.0,10.0,80,0.00,,,0.00,Wunderground v.1.15,2013-02-04 00:33:00,
2013-02-03 19:38:00,18.9,13.7,30.07,West,263,4.0,10.0,80,0.00,,,0.00,Wunderground v.1.15,2013-02-04 00:38:00,
2013-02-03 19:44:00,19.0,13.8,30.08,WSW,244,3.0,9.0,80,0.00,,,0.00,Wunderground v.1.15,2013-02-04 00:44:00,
2013-02-03 19:49:00,19.0,13.8,30.08,West,277,2.0,9.0,80,0.00,,,0.00,Wunderground v.1.15,2013-02-04 00:49:00,
2013-02-03 19:54:00,19.0,14.1,30.08,WSW,254,2.0,8.0,81,0.00,,,0.00,Wunderground v.1.15,2013-02-04 00:54:00,
2013-02-03 20:00:00,19.0,14.1,30.08,WSW,242,2.0,2.0,81,0.00,,,0.00,Wunderground v.1.15,2013-02-04 01:00:00,
2013-02-03 20:05:00,19.0,14.1,30.08,WSW,252,2.0,4.0,81,0.00,,,0.00,Wunderground v.1.15,2013-02-04 01:05:00,
2013-02-03 20:10:00,19.0,14.1,30.08,SW,228,2.0,4.0,81,0.00,,,0.00,Wunderground v.1.15,2013-02-04 01:10:00,
2013-02-03 20:15:00,19.1,14.2,30.08,WSW,250,2.0,9.0,81,0.00,,,0.00,Wunderground v.1.15,2013-02-04 01:15:00,
2013-02-03 20:20:00,19.1,14.2,30.08,WNW,284,2.0,2.0,81,0.00,,,0.00,Wunderground v.1.15,2013-02-04 01:20:00,
2013-02-03 20:26:00,19.2,14.3,30.08,WSW,255,2.0,6.0,81,0.00,,,0.00,Wunderground v.1.15,2013-02-04 01:26:00,
2013-02-03 20:31:00,19.3,14.4,30.08,West,272,3.0,3.0,81,0.00,,,0.00,Wunderground v.1.15,2013-02-04 01:31:00,
2013-02-03 20:36:00,19.3,14.4,30.08,WNW,298,2.0,5.0,81,0.00,,,0.00,Wunderground v.1.15,2013-02-04 01:36:00,
2013-02-03 20:41:00,19.4,14.5,30.09,West,275,2.0,3.0,81,0.00,,,0.00,Wunderground v.1.15,2013-02-04 01:41:00,
2013-02-03 20:47:00,19.4,14.5,30.09,WSW,252,2.0,5.0,81,0.00,,,0.00,Wunderground v.1.15,2013-02-04 01:47:00,
2013-02-03 20:52:00,19.4,14.5,30.09,WNW,293,2.0,15.0,81,0.00,,,0.00,Wunderground v.1.15,2013-02-04 01:52:00,
2013-02-03 20:57:00,19.5,14.6,30.09,West,263,4.0,15.0,81,0.00,,,0.00,Wunderground v.1.15,2013-02-04 01:57:00,
2013-02-03 21:03:00,19.4,14.5,30.09,SW,233,5.0,8.0,81,0.00,,,0.00,Wunderground v.1.15,2013-02-04 02:03:00,
2013-02-03 21:08:00,19.3,14.4,30.09,West,273,4.0,8.0,81,0.00,,,0.00,Wunderground v.1.15,2013-02-04 02:08:00,
2013-02-03 21:13:00,19.2,14.3,30.09,West,268,3.0,4.0,81,0.00,,,0.00,Wunderground v.1.15,2013-02-04 02:13:00,
2013-02-03 21:19:00,19.1,14.2,30.09,West,263,3.0,10.0,81,0.00,,,0.00,Wunderground v.1.15,2013-02-04 02:19:00,
2013-02-03 21:24:00,19.1,14.2,30.09,West,271,3.0,4.0,81,0.00,,,0.00,Wunderground v.1.15,2013-02-04 02:24:00,
2013-02-03 21:29:00,19.1,14.5,30.10,WNW,292,2.0,4.0,82,0.00,,,0.00,Wunderground v.1.15,2013-02-04 02:29:00,
2013-02-03 21:34:00,19.2,14.6,30.10,WNW,292,2.0,6.0,82,0.00,,,0.00,Wunderground v.1.15,2013-02-04 02:34:00,
2013-02-03 21:40:00,19.3,14.7,30.10,West,260,2.0,2.0,82,0.00,,,0.00,Wunderground v.1.15,2013-02-04 02:40:00,
2013-02-03 21:45:00,19.3,15.0,30.10,West,261,2.0,7.0,83,0.00,,,0.00,Wunderground v.1.15,2013-02-04 02:45:00,
2013-02-03 21:50:00,19.3,15.0,30.11,WSW,252,3.0,7.0,83,0.00,,,0.00,Wunderground v.1.15,2013-02-04 02:50:00,
2013-02-03 21:56:00,19.3,15.3,30.11,WSW,249,3.0,7.0,84,0.00,,,0.00,Wunderground v.1.15,2013-02-04 02:56:00,
2013-02-03 22:01:00,19.2,15.2,30.11,SW,234,3.0,3.0,84,0.00,,,0.00,Wunderground v.1.15,2013-02-04 03:01:00,
2013-02-03 22:06:00,19.1,15.3,30.11,WSW,256,2.0,5.0,85,0.00,,,0.00,Wunderground v.1.15,2013-02-04 03:06:00,
2013-02-03 22:11:00,19.1,15.3,30.10,WSW,253,2.0,4.0,85,0.00,,,0.00,Wunderground v.1.15,2013-02-04 03:11:00,
2013-02-03 22:17:00,19.0,15.5,30.10,WSW,251,2.0,5.0,86,0.00,,,0.00,Wunderground v.1.15,2013-02-04 03:17:00,
2013-02-03 22:22:00,19.0,15.5,30.10,West,271,2.0,5.0,86,0.00,,,0.00,Wunderground v.1.15,2013-02-04 03:22:00,
2013-02-03 22:27:00,19.0,15.5,30.10,West,263,1.0,5.0,86,0.00,,,0.00,Wunderground v.1.15,2013-02-04 03:27:00,
2013-02-03 22:32:00,19.1,15.6,30.10,West,265,1.0,3.0,86,0.00,,,0.00,Wunderground v.1.15,2013-02-04 03:32:00,
2013-02-03 22:37:00,19.1,15.3,30.11,WSW,256,1.0,6.0,85,0.00,,,0.00,Wunderground v.1.15,2013-02-04 03:37:00,
2013-02-03 22:43:00,19.0,15.0,30.11,WNW,288,3.0,11.0,84,0.00,,,0.00,Wunderground v.1.15,2013-02-04 03:43:00,
2013-02-03 22:48:00,18.9,14.6,30.11,West,274,4.0,11.0,83,0.00,,,0.00,Wunderground v.1.15,2013-02-04 03:48:00,
2013-02-03 22:53:00,18.7,14.4,30.11,WNW,290,4.0,4.0,83,0.00,,,0.00,Wunderground v.1.15,2013-02-04 03:53:00,
2013-02-03 22:58:00,18.5,13.9,30.11,West,259,4.0,7.0,82,0.00,,,0.00,Wunderground v.1.15,2013-02-04 03:58:00,
2013-02-03 23:04:00,18.4,13.8,30.11,West,262,4.0,4.0,82,0.00,,,0.00,Wunderground v.1.15,2013-02-04 04:04:00,
2013-02-03 23:09:00,18.1,13.3,30.11,West,280,3.0,4.0,81,0.00,,,0.00,Wunderground v.1.15,2013-02-04 04:09:00,
2013-02-03 23:14:00,17.9,13.1,30.11,WNW,283,3.0,7.0,81,0.00,,,0.00,Wunderground v.1.15,2013-02-04 04:14:00,
2013-02-03 23:19:00,17.7,12.9,30.11,West,265,3.0,7.0,81,0.00,,,0.00,Wunderground v.1.15,2013-02-04 04:19:00,
2013-02-03 23:25:00,17.6,12.8,30.12,West,273,2.0,4.0,81,0.00,,,0.00,Wunderground v.1.15,2013-02-04 04:25:00,
2013-02-03 23:30:00,17.4,12.6,30.12,West,275,2.0,3.0,81,0.00,,,0.00,Wunderground v.1.15,2013-02-04 04:30:00,
2013-02-03 23:35:00,17.3,12.5,30.11,WNW,300,1.0,3.0,81,0.00,,,0.00,Wunderground v.1.15,2013-02-04 04:35:00,
2013-02-03 23:41:00,17.1,12.3,30.12,West,279,1.0,1.0,81,0.00,,,0.00,Wunderground v.1.15,2013-02-04 04:41:00,
2013-02-03 23:46:00,16.9,12.1,30.12,West,272,0.0,1.0,81,0.00,,,0.00,Wunderground v.1.15,2013-02-04 04:46:00,
2013-02-03 23:52:00,16.7,12.2,30.12,WSW,257,1.0,3.0,82,0.00,,,0.00,Wunderground v.1.15,2013-02-04 04:52:00,
2013-02-03 23:57:00,16.6,12.1,30.12,West,265,1.0,3.0,82,0.00,,,0.00,Wunderground v.1.15,2013-02-04 04:57:00,